Stratford, CT

3:02 PM EST on February 25, 2017 (GMT -0500)
Sikorsky Memorial

Weather History for KBDR - August, 2014

Change the Weather History Date:

Tuesday, August 19, 2014

  Actual Average Record
Temperature  
Mean Temperature 68 °F 73 °F  
Max Temperature 76 °F 81 °F 90 °F (1956)
Min Temperature 59 °F 66 °F 53 °F (1953)
Degree Days  
Heating Degree Days 0 0  
Month to date heating degree days 0 0  
Since 1 June heating degree days 4 33  
Since 1 July heating degree days 0 1  
Cooling Degree Days 3 8  
Month to date cooling degree days 150 174  
Year to date cooling degree days 642 630  
Since 1 June cooling degree days 619 606  
Growing Degree Days 17 (Base 50)    
Moisture  
Dew Point 58 °F    
Average Humidity 70    
Maximum Humidity 90    
Minimum Humidity 49    
Precipitation  
Precipitation 0.00 in 0.14 in 4.66 in (1991)
Month to date precipitation 1.90 2.52  
Year to date precipitation 31.03 27.46  
Snow  
Snow 0.00 in 0.00 in 0.00 in (2002)
Month to date snowfall 0.0 0.0  
Since 1 July snowfall 0.0 0.0  
Snow Depth 0.00 in    
Sea Level Pressure  
Sea Level Pressure 29.91 in    
Wind  
Wind Speed 7 mph (ENE)    
Max Wind Speed 12 mph    
Max Gust Speed 14 mph    
Visibility 10 miles    
Events      
T = Trace of Precipitation, MM = Missing Value Source: NWS Daily Summary

Daily Weather History Graph

Daily Weather History Graph

Search for Another Location

Airport or City:

Trip Planner

Search our weather history database for the weather conditions in past years. The results will help you decide how hot, cold, wet, or windy it might be!

Date:

Astronomy

Aug. 19, 2014 Rise Set
Actual Time 6:05 AM EDT 7:45 PM EDT
Civil Twilight 5:36 AM EDT 8:14 PM EDT
Nautical Twilight 5:01 AM EDT 8:50 PM EDT
Astronomical Twilight 4:23 AM EDT 9:27 PM EDT
Moon 12:54 AM EDT (8/19) 3:40 PM EDT (8/19)
Length of Visible Light 14h 38m
Length of Day
13h 39m
Waning Crescent, 29% of the Moon is Illuminated
Aug 19
Waning Crescent
Aug 25
New
Sep 2
First Quarter
Sep 8
Full
Sep 15
Last Quarter

Hourly Weather History & Observations

Time (EDT) Temp. Dew Point Humidity Pressure Visibility Wind Dir Wind Speed Gust Speed Precip Events Conditions
12:52 AM 64.9 °F 57.0 °F 75% 29.88 in 10.0 mi NNE 4.6 mph - N/A   Clear
1:52 AM 64.0 °F 57.0 °F 78% 29.88 in 10.0 mi NNE 4.6 mph - N/A   Clear
2:52 AM 63.0 °F 55.9 °F 78% 29.88 in 10.0 mi NNE 6.9 mph - N/A   Partly Cloudy
3:52 AM 62.1 °F 55.0 °F 78% 29.89 in 10.0 mi NNE 9.2 mph - N/A   Partly Cloudy
4:52 AM 60.8 °F 55.4 °F 82% 29.88 in 10.0 mi North 9.2 mph - N/A   Clear
5:52 AM 60.1 °F 54.0 °F 80% 29.89 in 10.0 mi North 8.1 mph - N/A   Clear
6:52 AM 60.1 °F 54.0 °F 80% 29.91 in 10.0 mi NNE 6.9 mph - N/A   Clear
7:52 AM 64.0 °F 54.0 °F 70% 29.92 in 10.0 mi NNE 10.4 mph - N/A   Clear
8:52 AM 69.1 °F 53.1 °F 57% 29.92 in 10.0 mi NNE 6.9 mph - N/A   Clear
9:52 AM 71.1 °F 51.1 °F 49% 29.93 in 10.0 mi East 8.1 mph - N/A   Clear
10:52 AM 71.1 °F 55.0 °F 57% 29.94 in 10.0 mi East 8.1 mph - N/A   Clear
11:52 AM 73.0 °F 53.1 °F 49% 29.94 in 10.0 mi East 9.2 mph - N/A   Clear
12:52 PM 73.0 °F 54.0 °F 51% 29.93 in 10.0 mi East 9.2 mph - N/A   Clear
1:52 PM 73.9 °F 55.9 °F 53% 29.93 in 10.0 mi ENE 8.1 mph - N/A   Clear
2:52 PM 75.0 °F 57.9 °F 55% 29.91 in 10.0 mi ESE 8.1 mph - N/A   Clear
3:52 PM 75.0 °F 59.0 °F 57% 29.91 in 10.0 mi ESE 8.1 mph - N/A   Clear
4:52 PM 75.2 °F 60.8 °F 61% 29.90 in 10.0 mi ESE 8.1 mph - N/A   Clear
5:52 PM 75.9 °F 59.0 °F 56% 29.90 in 10.0 mi SE 9.2 mph - N/A   Clear
6:52 PM 73.9 °F 61.0 °F 64% 29.91 in 10.0 mi SE 8.1 mph - N/A   Clear
7:52 PM 73.0 °F 63.0 °F 71% 29.91 in 10.0 mi SSE 6.9 mph - N/A   Clear
8:52 PM 72.0 °F 64.9 °F 78% 29.92 in 10.0 mi South 8.1 mph - N/A   Clear
9:52 PM 71.1 °F 64.9 °F 81% 29.94 in 10.0 mi South 6.9 mph - N/A   Clear
10:52 PM 70.0 °F 64.9 °F 84% 29.94 in 10.0 mi South 4.6 mph - N/A   Clear
11:52 PM 70.0 °F 66.0 °F 87% 29.95 in 10.0 mi Calm Calm - N/A   Clear